Weather in Sadovy

Russia / Sverdlovsk Oblast     56°57′20″N   60°40′38″E
temp.,
°C
wind,
m/s
gust,
m/s
humid.,
%
clouds,
%
prec.,
mm/h
press.,
hPa
HPBL,
m
10 may, mon
mon1023:00+13ene3106167 0.0 1019186
02:00+11ese2769100 0.0 1020137
05:00+11ese227398 0.0 102232
08:00+15ese35527 0.0 1023407
11:00+20e353712 0.0 10231467
14:00+21e442897 0.0 10232159
17:00+21ese332647 0.0 10242397
20:00+17se36413 0.0 1025183
11 may, tue
tue1123:00+12sse26520 0.0 1026104
02:00+10s22525 0.0 102732
05:00+9ssw22545 0.0 102816
08:00+14ssw2440100 0.0 1028267
11:00+18ssw2229100 0.0 1028885
14:00+21wsw1227100 0.0 10281408
17:00+21w232944 0.0 10271545
20:00+18wsw12446 0.0 102711
12 may, wed
wed1223:00+14wsw225347 0.0 102822
02:00+12nw236999 0.0 102847
05:00+11nnw2494100 0.0 102977
08:00+14nnw3475100 0.0 1029470
11:00+19nnw3438100 0.0 10291233
14:00+21nnw23315 0.0 10281645
17:00+22nnw343082 0.0 10271985
20:00+18n1147100 0.0 102711
13 may, thu
thu1323:00+14nnw28655 0.0 1028132
02:00+12nnw257643 0.0 102991
05:00+11nnw228194 0.0 102919
08:00+17wnw245835 0.0 1029322
11:00+22nw244258 0.0 10281627
14:00+25nnw343347 0.0 10272116
17:00+25nnw353111 0.0 10262235
20:00+21nw224727 0.0 102627
14 may, fri
fri1423:00+17nnw22625 0.0 102724
02:00+15nw22675 0.0 102711
05:00+14wnw22704 0.0 102813
08:00+20w23510 0.0 1027268
11:00+25w34365 0.0 10261904
14:00+27w35295 0.0 10252547
17:00+27w46272 0.0 10232745
20:00+23wnw38410 0.0 1023253